Weather History for Immokalee Regional Airport [I, FL

Change the Weather History Date:

Thursday, April 17, 2014

  Actual Average (KFMY) Record (KFMY)
Temperature  
Mean Temperature 80 °F 74 °F  
Max Temperature 91 °F 85 °F 94 °F (1944)
Min Temperature 68 °F 63 °F 45 °F (1962)
Degree Days  
Heating Degree Days 0 0  
Month to date heating degree days 0  
Since 1 July heating degree days 284  
Cooling Degree Days 14 9  
Month to date cooling degree days 137  
Year to date cooling degree days 498  
Growing Degree Days 30 (Base 50)    
Moisture  
Dew Point 72 °F    
Average Humidity 80    
Maximum Humidity 100    
Minimum Humidity 49    
Precipitation  
Precipitation 0.02 in 0.07 in 1.82 in (1942)
Month to date precipitation 1.28  
Year to date precipitation 8.25  
Sea Level Pressure  
Sea Level Pressure 30.11 in    
Wind  
Wind Speed 8 mph (ENE)    
Max Wind Speed 24 mph    
Max Gust Speed 29 mph    
Visibility 7 miles    
Events      
T = Trace of Precipitation, MM = Missing Value Source: NWS Daily Summary

Daily Weather History Graph

Daily Weather History Graph

Search for Another Location

Airport:

Trip Planner

Search our weather history database for the weather conditions in past years. The results will help you decide how hot, cold, wet, or windy it might be!

Date:

Astronomy

Apr. 17, 2014 Rise Set
Actual Time 7:00 AM EDT 7:50 PM EDT
Civil Twilight 6:36 AM EDT 8:14 PM EDT
Nautical Twilight 6:08 AM EDT 8:42 PM EDT
Astronomical Twilight 5:39 AM EDT 9:10 PM EDT
Moon 10:23 PM EDT (4/17) 8:40 AM EDT (4/17)
Length of Visible Light 13h 37m
Length of Day
12h 50m
Waning Gibbous, 94% of the Moon is Illuminated
Apr 17
Waning Gibbous
Apr 22
Last Quarter
Apr 29
New
May 6
First Quarter
May 14
Full

Hourly Weather History & Observations

Time (EDT) Temp. Heat Index Dew Point Humidity Pressure Visibility Wind Dir Wind Speed Gust Speed Precip Events Conditions
12:15 AM 71.6 °F - 71.6 °F 100% 30.10 in 8.0 mi ENE 8.1 mph - 0.00 in   Overcast
12:35 AM 71.6 °F - 71.6 °F 100% 30.11 in 8.0 mi ENE 6.9 mph - 0.00 in   Overcast
12:55 AM 71.6 °F - 71.6 °F 100% 30.11 in 7.0 mi ENE 6.9 mph - 0.00 in   Overcast
1:15 AM 71.6 °F - 71.6 °F 100% 30.10 in 8.0 mi ENE 6.9 mph - 0.00 in   Mostly Cloudy
1:35 AM 71.6 °F - 71.6 °F 100% 30.10 in 8.0 mi ENE 5.8 mph - 0.00 in   Mostly Cloudy
2:15 AM 71.6 °F - 71.6 °F 100% 30.09 in 8.0 mi NE 6.9 mph - 0.00 in   Mostly Cloudy
2:35 AM 69.8 °F - 69.8 °F 100% 30.08 in 5.0 mi North 4.6 mph - 0.00 in   Scattered Clouds
2:55 AM 68.0 °F - 68.0 °F 100% 30.08 in 7.0 mi NNE 5.8 mph - 0.00 in   Clear
3:15 AM 68.0 °F - - N/A% 30.08 in 7.0 mi NNE 5.8 mph - 0.00 in   Mostly Cloudy
3:35 AM 68.0 °F - - N/A% 30.08 in 6.0 mi NNE 5.8 mph - 0.00 in   Overcast
3:55 AM 69.8 °F - 69.8 °F 100% 30.07 in 7.0 mi NE 5.8 mph - 0.00 in   Overcast
4:15 AM 69.8 °F - 69.8 °F 100% 30.07 in 7.0 mi NNE 4.6 mph - 0.00 in   Overcast
4:35 AM 69.8 °F - 69.8 °F 100% 30.07 in 6.0 mi NE 4.6 mph - 0.00 in   Overcast
5:15 AM 68.0 °F - - N/A% 30.08 in 6.0 mi ENE 8.1 mph - 0.00 in   Mostly Cloudy
5:35 AM 68.0 °F - - N/A% 30.07 in 6.0 mi NE 5.8 mph - 0.00 in   Mostly Cloudy
5:55 AM 68.0 °F - - N/A% 30.08 in 7.0 mi NE 5.8 mph - 0.00 in   Overcast
6:15 AM 68.0 °F - - N/A% 30.09 in 7.0 mi NNE 4.6 mph - 0.00 in   Overcast
6:35 AM 68.0 °F - - N/A% 30.09 in 7.0 mi NNE 8.1 mph - 0.00 in   Overcast
6:55 AM 68.0 °F - - N/A% 30.10 in 6.0 mi North 5.8 mph - 0.00 in   Overcast
7:15 AM 69.8 °F - - N/A% 30.12 in 5.0 mi NNE 4.6 mph - 0.00 in   Overcast
7:35 AM 69.8 °F - - N/A% 30.12 in 5.0 mi NE 4.6 mph - 0.00 in   Overcast
7:55 AM 69.8 °F - - N/A% 30.12 in 5.0 mi NNE 5.8 mph - 0.00 in   Mostly Cloudy
8:15 AM 69.8 °F - - N/A% 30.12 in 5.0 mi NE 5.8 mph - 0.00 in   Partly Cloudy
8:35 AM 71.6 °F - - N/A% 30.13 in 5.0 mi NE 6.9 mph - 0.00 in   Clear
8:55 AM 73.4 °F - 73.4 °F 100% 30.13 in 5.0 mi ENE 6.9 mph - 0.00 in   Clear
9:15 AM 75.2 °F - 75.2 °F 100% 30.13 in 5.0 mi ENE 9.2 mph - 0.00 in   Scattered Clouds
9:35 AM 78.8 °F - 78.8 °F 100% 30.13 in 5.0 mi ENE 11.5 mph - 0.00 in   Scattered Clouds
9:55 AM 80.6 °F 87.1 °F 77.0 °F 89% 30.13 in 7.0 mi East 12.7 mph - 0.00 in   Scattered Clouds
10:15 AM 82.4 °F 89.5 °F 75.2 °F 79% 30.14 in 8.0 mi East 11.5 mph - 0.00 in   Scattered Clouds
10:35 AM 82.4 °F 89.5 °F 75.2 °F 79% 30.15 in 7.0 mi East 11.5 mph - 0.00 in   Mostly Cloudy
10:55 AM 86.0 °F 93.4 °F 73.4 °F 66% 30.15 in 7.0 mi East 10.4 mph - 0.00 in   Scattered Clouds
11:15 AM 87.8 °F 95.6 °F 73.4 °F 62% 30.16 in 8.0 mi East 11.5 mph - 0.00 in   Scattered Clouds
11:35 AM 87.8 °F 95.6 °F 73.4 °F 62% 30.16 in 6.0 mi ENE 9.2 mph 18.4 mph 0.00 in   Scattered Clouds
11:55 AM 87.8 °F 93.8 °F 71.6 °F 58% 30.15 in 8.0 mi East 6.9 mph 16.1 mph 0.00 in   Scattered Clouds
12:15 PM 87.8 °F 93.8 °F 71.6 °F 58% 30.14 in 9.0 mi ENE 10.4 mph 16.1 mph 0.00 in   Mostly Cloudy
12:35 PM 87.8 °F 93.8 °F 71.6 °F 58% 30.14 in 8.0 mi East 9.2 mph - 0.00 in   Scattered Clouds
12:55 PM 87.8 °F 92.6 °F 69.8 °F 55% 30.13 in 8.0 mi East 8.1 mph - 0.00 in   Scattered Clouds
1:15 PM 89.6 °F 94.7 °F 69.8 °F 52% 30.13 in 9.0 mi ENE 9.2 mph 16.1 mph 0.00 in   Mostly Cloudy
1:35 PM 91.4 °F 96.8 °F 69.8 °F 49% 30.12 in 8.0 mi ENE 10.4 mph - 0.00 in   Scattered Clouds
1:55 PM 89.6 °F 96.2 °F 71.6 °F 55% 30.11 in 8.0 mi NE 13.8 mph - 0.00 in   Scattered Clouds
2:15 PM 86.0 °F 91.8 °F 71.6 °F 62% 30.10 in 8.0 mi ENE 9.2 mph 19.6 mph 0.00 in   Mostly Cloudy
2:35 PM 89.6 °F 96.2 °F 71.6 °F 55% 30.10 in 9.0 mi ENE 16.1 mph 21.9 mph 0.00 in   Scattered Clouds
2:55 PM 87.8 °F 93.8 °F 71.6 °F 58% 30.09 in 7.0 mi NE 17.3 mph 21.9 mph 0.00 in   Mostly Cloudy
3:15 PM 84.2 °F 89.6 °F 71.6 °F 66% 30.09 in 5.0 mi ENE 16.1 mph 21.9 mph 0.00 in   Mostly Cloudy
3:35 PM 75.2 °F - 69.8 °F 83% 30.12 in 9.0 mi SSE 24.2 mph 28.8 mph 0.00 in   Overcast
3:55 PM 71.6 °F - 71.6 °F 100% 30.10 in 5.0 mi SE 15.0 mph 19.6 mph 0.00 in   Overcast
4:15 PM 71.6 °F - - N/A% 30.10 in 5.0 mi East 6.9 mph - 0.00 in   Mostly Cloudy
4:35 PM 69.8 °F - - N/A% 30.10 in 7.0 mi East 11.5 mph - 0.00 in   Mostly Cloudy
5:15 PM 69.8 °F - - N/A% 30.11 in 6.0 mi NNE 8.1 mph - 0.00 in   Mostly Cloudy
5:35 PM 69.8 °F - - N/A% 30.09 in 9.0 mi ENE 8.1 mph - 0.01 in   Partly Cloudy
5:55 PM 69.8 °F - - N/A% 30.09 in 3.0 mi Calm Calm - 0.01 in   Mostly Cloudy
6:15 PM 69.8 °F - - N/A% 30.09 in 4.0 mi East 5.8 mph - 0.00 in   Mostly Cloudy
6:35 PM 71.6 °F - - N/A% 30.09 in 5.0 mi East 8.1 mph - 0.01 in   Scattered Clouds
6:55 PM 71.6 °F - - N/A% 30.09 in 6.0 mi ENE 8.1 mph - 0.01 in   Clear
7:15 PM 71.6 °F - - N/A% 30.09 in 7.0 mi ENE 6.9 mph - 0.00 in   Scattered Clouds
7:35 PM 73.4 °F - - N/A% 30.10 in 6.0 mi ENE 9.2 mph - 0.00 in   Overcast
8:15 PM 73.4 °F - - N/A% 30.10 in 8.0 mi East 10.4 mph - 0.00 in   Overcast
8:35 PM 73.4 °F - - N/A% 30.10 in 8.0 mi East 11.5 mph - 0.00 in   Mostly Cloudy
8:55 PM 73.4 °F - - N/A% 30.10 in 7.0 mi ENE 9.2 mph - 0.00 in   Mostly Cloudy
9:15 PM 73.4 °F - - N/A% 30.12 in 7.0 mi ENE 9.2 mph - 0.00 in   Scattered Clouds
9:35 PM 71.6 °F - - N/A% 30.12 in 7.0 mi ENE 8.1 mph - 0.00 in   Mostly Cloudy
9:55 PM 73.4 °F - - N/A% 30.12 in 8.0 mi ENE 10.4 mph - 0.00 in   Mostly Cloudy
10:15 PM 73.4 °F - - N/A% 30.12 in 7.0 mi ENE 10.4 mph - 0.00 in   Mostly Cloudy
10:35 PM 71.6 °F - - N/A% 30.12 in 8.0 mi ENE 9.2 mph - 0.00 in   Mostly Cloudy
10:55 PM 71.6 °F - - N/A% 30.12 in 7.0 mi ENE 11.5 mph - 0.00 in   Mostly Cloudy
11:15 PM 73.4 °F - - N/A% 30.12 in 8.0 mi ENE 10.4 mph - 0.00 in   Overcast
11:35 PM 73.4 °F - - N/A% 30.13 in 4.0 mi ENE 9.2 mph - 0.00 in   Overcast
11:55 PM 71.6 °F - - N/A% 30.12 in 3.0 mi ENE 10.4 mph - 0.00 in   Mostly Cloudy